SES-8

Last updated on Sept. 30, 2020, 5:50 a.m. UTC

1 39460U 13071A   20273.87447699 -.00000286  00000-0  00000-0 0  9999
2 39460   0.0212 217.5553 0001979 300.9420 260.4003  1.00269270 23525
UTC
Height (km)
Latitude
Longitude
Inclination
Orbital Period
UTC large
Height (km)
Speed (km/s)
/
Latitude / Longitude
Inclination (degrees)
Orbital Period (minutes)
Azimuth
Elevation
Range (km)
Doppler Factor
iOS Compass Heading
iOS Angle

Next 30 passes for location: Hong Kong

Rise time Rise Azimuth (degrees) Set time Set Azimuth (degrees) Duration Max altitude (degrees)

No matching passes for this satellites